This demonstration page uses our WeatherBlox Daily Observations layout. Learn more.

Left ArrowRight Arrow

39.29038, -76.61219

Hourly Observations for January 8, 2020

Temp ( °F °C ) Dew Point ( °F °C ) Humidity (%) Winds ( mph kmh ) Pressure ( in mb ) Visibility ( mi km ) Precip ( " mm )
12:54 am 00:54 undefined 33 0.6 28 -2.2 82 82 undefined N/A 29.99 1016 N/A 0.00 0.00
1:54 am 01:54 undefined 33 0.6 28 -2.2 82 82 undefined N/A 29.99 1016 N/A 0.00 0.00
2:54 am 02:54 undefined 33 0.6 27 -2.8 78 78 undefined N/A 30.00 1016 N/A 0.00 0.00
3:54 am 03:54 undefined 34 1.1 27 -2.8 76 76 undefined N/A 30.01 1016 N/A 0.00 0.00
4:54 am 04:54 undefined 34 1.1 27 -2.8 76 76 undefined N/A 30.00 1016 N/A 0.00 0.00
5:54 am 05:54 undefined 33 0.6 28 -2.2 82 82 undefined N/A 30.00 1016 N/A 0.00 0.00
6:54 am 06:54 undefined 33 0.6 28 -2.2 82 82 undefined N/A 30.00 1016 N/A 0.00 0.00
7:54 am 07:54 undefined 33 0.6 28 -2.2 82 82 undefined N/A 29.99 1016 N/A 0.00 0.00
8:54 am 08:54 undefined 38 3.3 29 -1.7 70 70 undefined N/A 30.06 1018 N/A 0.00 0.00
9:54 am 09:54 undefined 39 3.9 30 -1.1 70 70 undefined N/A 30.06 1018 N/A 0.00 0.00
10:54 am 10:54 undefined 43 6.1 31 -0.6 63 63 undefined N/A 30.10 1019 N/A 0.00 0.00
11:54 am 11:54 undefined 44 6.7 27 -2.8 51 51 undefined N/A 30.07 1018 N/A 0.00 0.00
12:54 pm 12:54 undefined 44 6.7 19 -7.2 37 37 undefined N/A 30.04 1017 N/A 0.00 0.00
1:54 pm 13:54 undefined 44 6.7 11 -11.7 26 26 undefined N/A 30.09 1019 N/A 0.00 0.00
2:54 pm 14:54 undefined 43 6.1 11 -11.7 27 27 undefined N/A 30.11 1020 N/A 0.00 0.00
3:54 pm 15:54 undefined 42 5.6 13 -10.6 30 30 undefined N/A 30.17 1022 N/A 0.00 0.00
4:54 pm 16:54 undefined 40 4.4 18 -7.8 41 41 undefined N/A 30.23 1024 N/A 0.00 0.00
5:54 pm 17:54 undefined 38 3.3 16 -8.9 41 41 undefined N/A 30.28 1025 N/A 0.00 0.00
6:54 pm 18:54 undefined 37 2.8 16 -8.9 42 42 undefined N/A 30.33 1027 N/A 0.00 0.00
7:54 pm 19:54 undefined 36 2.2 16 -8.9 44 44 undefined N/A 30.37 1029 N/A 0.00 0.00
8:54 pm 20:54 undefined 35 1.7 15 -9.4 44 44 undefined N/A 30.40 1030 N/A 0.00 0.00
9:54 pm 21:54 undefined 34 1.1 15 -9.4 46 46 undefined N/A 30.44 1031 N/A 0.00 0.00
10:54 pm 22:54 undefined 33 0.6 13 -10.6 43 43 undefined N/A 30.47 1032 N/A 0.00 0.00
11:54 pm 23:54 undefined 32 0 13 -10.6 45 45 undefined N/A 30.50 1033 N/A 0.00 0.00

Powered by AerisWeather